Time,TemperatureF,DewpointF,PressureIn,WindDirection,WindDirectionDegrees,WindSpeedMPH,WindSpeedGustMPH,Humidity,HourlyPrecipIn,Conditions,Clouds,dailyrainin,SoftwareType,DateUTC
2013-07-20 00:01:00,75.5,70.7,30.00,North,8,0.0,0.0,85,0.00,,SCT050,0.00,VWS V14.01,2013-07-20 04:01:00,
2013-07-20 00:02:00,75.5,70.7,30.00,North,8,0.0,0.0,85,0.00,,SCT050,0.00,VWS V14.01,2013-07-20 04:02:00,
2013-07-20 00:07:00,75.4,70.9,30.00,North,8,0.0,0.0,86,0.00,,SCT050,0.00,VWS V14.01,2013-07-20 04:07:00,
2013-07-20 00:12:00,75.1,70.6,30.00,North,7,0.0,0.0,86,0.00,,SCT050,0.00,VWS V14.01,2013-07-20 04:12:00,
2013-07-20 00:17:00,74.9,70.4,30.00,North,8,0.0,0.0,86,0.00,,SCT050,0.00,VWS V14.01,2013-07-20 04:17:00,
2013-07-20 00:22:00,74.8,70.3,30.00,North,7,0.0,0.0,86,0.00,,SCT050,0.00,VWS V14.01,2013-07-20 04:22:00,
2013-07-20 00:27:00,74.6,70.5,30.00,North,7,0.0,0.0,87,0.00,,SCT050,0.00,VWS V14.01,2013-07-20 04:27:00,
2013-07-20 00:32:00,74.4,70.3,30.00,North,8,0.0,0.0,87,0.00,,SCT050,0.00,VWS V14.01,2013-07-20 04:32:00,
2013-07-20 00:37:00,74.1,70.3,30.00,North,7,0.0,0.0,88,0.00,,SCT050,0.00,VWS V14.01,2013-07-20 04:37:00,
2013-07-20 00:42:00,73.8,70.4,30.00,North,7,0.0,0.0,89,0.00,,SCT050,0.00,VWS V14.01,2013-07-20 04:42:00,
2013-07-20 00:47:00,73.5,70.4,30.00,North,7,0.0,0.0,90,0.00,,SCT050,0.00,VWS V14.01,2013-07-20 04:47:00,
2013-07-20 00:52:00,73.3,70.5,30.00,North,7,0.0,0.0,91,0.00,,SCT050,0.00,VWS V14.01,2013-07-20 04:52:00,
2013-07-20 00:57:00,73.0,70.2,30.00,North,7,0.0,0.0,91,0.00,,SCT050,0.00,VWS V14.01,2013-07-20 04:57:00,
2013-07-20 01:02:00,72.9,70.4,30.00,North,8,0.0,0.0,92,0.00,,SCT050,0.00,VWS V14.01,2013-07-20 05:02:00,
2013-07-20 01:07:00,72.7,70.2,30.00,North,7,0.0,0.0,92,0.00,,SCT050,0.00,VWS V14.01,2013-07-20 05:07:00,
2013-07-20 01:12:00,72.6,70.5,30.00,North,8,0.0,0.0,93,0.00,,SCT050,0.00,VWS V14.01,2013-07-20 05:12:00,
2013-07-20 01:17:00,72.6,70.5,30.00,North,7,0.0,0.0,93,0.00,,SCT050,0.00,VWS V14.01,2013-07-20 05:17:00,
2013-07-20 01:22:00,72.5,70.4,29.99,North,7,0.0,0.0,93,0.00,,SCT050,0.00,VWS V14.01,2013-07-20 05:22:00,
2013-07-20 01:27:00,72.4,70.3,29.99,North,7,0.0,0.0,93,0.00,,SCT050,0.00,VWS V14.01,2013-07-20 05:27:00,
2013-07-20 01:32:00,72.3,70.2,29.99,North,7,0.0,0.0,93,0.00,,SCT050,0.00,VWS V14.01,2013-07-20 05:32:00,
2013-07-20 01:37:00,72.2,70.1,29.99,North,8,0.0,0.0,93,0.00,,SCT050,0.00,VWS V14.01,2013-07-20 05:37:00,
2013-07-20 01:42:00,72.2,70.4,29.99,North,7,0.0,0.0,94,0.00,,SCT050,0.00,VWS V14.01,2013-07-20 05:42:00,
2013-07-20 01:47:00,72.2,70.4,29.99,North,7,0.0,0.0,94,0.00,,SCT050,0.00,VWS V14.01,2013-07-20 05:47:00,
2013-07-20 01:52:00,72.2,70.4,29.99,North,7,0.0,0.0,94,0.00,,SCT050,0.00,VWS V14.01,2013-07-20 05:52:00,
2013-07-20 01:57:00,72.1,70.3,29.99,North,7,0.0,0.0,94,0.00,,SCT050,0.00,VWS V14.01,2013-07-20 05:57:00,
2013-07-20 02:02:00,72.0,70.2,29.99,North,8,0.0,0.0,94,0.00,,SCT050,0.00,VWS V14.01,2013-07-20 06:02:00,
2013-07-20 02:07:00,71.8,70.0,29.99,North,7,0.0,0.0,94,0.00,,SCT050,0.00,VWS V14.01,2013-07-20 06:07:00,
2013-07-20 02:12:00,71.8,70.0,29.99,North,8,0.0,0.0,94,0.00,,SCT050,0.00,VWS V14.01,2013-07-20 06:12:00,
2013-07-20 02:17:00,71.7,70.2,29.99,North,8,0.0,0.0,95,0.00,,SCT050,0.00,VWS V14.01,2013-07-20 06:17:00,
2013-07-20 02:22:00,71.7,70.2,29.98,North,7,0.0,0.0,95,0.00,,SCT050,0.00,VWS V14.01,2013-07-20 06:22:00,
2013-07-20 02:27:00,71.7,70.2,29.98,North,8,0.0,0.0,95,0.00,,SCT050,0.00,VWS V14.01,2013-07-20 06:27:00,
2013-07-20 02:32:00,71.7,70.2,29.98,North,7,0.0,0.0,95,0.00,,SCT050,0.00,VWS V14.01,2013-07-20 06:32:00,
2013-07-20 02:37:00,71.7,70.2,29.98,North,7,0.0,0.0,95,0.00,,SCT050,0.00,VWS V14.01,2013-07-20 06:37:00,
2013-07-20 02:42:00,71.7,70.5,29.98,North,7,0.0,0.0,96,0.00,,SCT050,0.00,VWS V14.01,2013-07-20 06:42:00,
2013-07-20 02:47:00,71.8,70.6,29.98,North,7,0.0,0.0,96,0.00,,SCT050,0.00,VWS V14.01,2013-07-20 06:47:00,
2013-07-20 02:52:00,71.8,70.6,29.98,North,7,0.0,0.0,96,0.00,,SCT050,0.00,VWS V14.01,2013-07-20 06:52:00,
2013-07-20 02:57:00,71.6,70.1,29.98,North,7,0.0,0.0,95,0.00,,SCT050,0.00,VWS V14.01,2013-07-20 06:57:00,
2013-07-20 03:02:00,71.5,70.0,29.98,North,7,0.0,0.0,95,0.00,,SCT050,0.00,VWS V14.01,2013-07-20 07:02:00,
2013-07-20 03:07:00,71.5,70.3,29.97,North,7,0.0,0.0,96,0.00,,SCT050,0.00,VWS V14.01,2013-07-20 07:07:00,
2013-07-20 03:12:00,70.7,69.5,29.98,North,8,0.0,0.0,96,0.00,,SCT050,0.00,VWS V14.01,2013-07-20 07:12:00,
2013-07-20 03:17:00,70.7,69.5,29.98,North,8,0.0,0.0,96,0.00,,SCT050,0.00,VWS V14.01,2013-07-20 07:17:00,
2013-07-20 03:22:00,70.7,69.5,29.98,North,8,0.0,0.0,96,0.00,,SCT050,0.00,VWS V14.01,2013-07-20 07:22:00,
2013-07-20 03:27:00,70.7,69.5,29.98,North,8,0.0,0.0,96,0.00,,SCT050,0.00,VWS V14.01,2013-07-20 07:27:00,
2013-07-20 03:32:00,70.7,69.5,29.98,North,8,0.0,0.0,96,0.00,,SCT050,0.00,VWS V14.01,2013-07-20 07:32:00,
2013-07-20 03:37:00,70.7,69.5,29.97,North,8,0.0,0.0,96,0.00,,SCT050,0.00,VWS V14.01,2013-07-20 07:37:00,
2013-07-20 03:42:00,70.7,69.5,29.97,North,8,0.0,0.0,96,0.00,,SCT050,0.00,VWS V14.01,2013-07-20 07:42:00,
2013-07-20 03:47:00,70.7,69.5,29.97,North,8,0.0,0.0,96,0.00,,SCT050,0.00,VWS V14.01,2013-07-20 07:47:00,
2013-07-20 03:52:00,70.7,69.5,29.97,North,8,0.0,0.0,96,0.00,,SCT050,0.00,VWS V14.01,2013-07-20 07:52:00,
2013-07-20 03:57:00,70.7,69.5,29.97,North,8,0.0,0.0,96,0.00,,SCT050,0.00,VWS V14.01,2013-07-20 07:57:00,
2013-07-20 04:02:00,70.7,69.5,29.97,North,8,0.0,0.0,96,0.00,,SCT050,0.00,VWS V14.01,2013-07-20 08:02:00,
2013-07-20 04:07:00,70.7,69.5,29.97,North,8,0.0,0.0,96,0.00,,SCT050,0.00,VWS V14.01,2013-07-20 08:07:00,
2013-07-20 04:12:00,70.7,69.5,29.97,North,8,0.0,0.0,96,0.00,,SCT050,0.00,VWS V14.01,2013-07-20 08:12:00,
2013-07-20 04:17:00,70.7,69.5,29.97,North,8,0.0,0.0,96,0.00,,SCT050,0.00,VWS V14.01,2013-07-20 08:17:00,
2013-07-20 04:22:00,70.7,69.5,29.97,North,8,0.0,0.0,96,0.00,,SCT050,0.00,VWS V14.01,2013-07-20 08:22:00,
2013-07-20 04:27:00,70.7,69.5,29.97,North,8,0.0,0.0,96,0.00,,SCT050,0.00,VWS V14.01,2013-07-20 08:27:00,
2013-07-20 04:32:00,70.7,69.5,29.97,North,8,0.0,0.0,96,0.00,,SCT050,0.00,VWS V14.01,2013-07-20 08:32:00,
2013-07-20 04:37:00,70.7,69.5,29.97,North,8,0.0,0.0,96,0.00,,SCT050,0.00,VWS V14.01,2013-07-20 08:37:00,
2013-07-20 04:42:00,70.7,69.5,29.97,North,8,0.0,0.0,96,0.00,,SCT050,0.00,VWS V14.01,2013-07-20 08:42:00,
2013-07-20 04:47:00,70.7,69.5,29.97,North,8,0.0,0.0,96,0.00,,SCT050,0.00,VWS V14.01,2013-07-20 08:47:00,
2013-07-20 04:52:00,70.7,69.5,29.97,North,8,0.0,0.0,96,0.00,,SCT050,0.00,VWS V14.01,2013-07-20 08:52:00,
2013-07-20 04:57:00,70.7,69.5,29.97,North,8,0.0,0.0,96,0.00,,SCT050,0.00,VWS V14.01,2013-07-20 08:57:00,
2013-07-20 05:02:00,70.7,69.5,29.97,North,8,0.0,0.0,96,0.00,,SCT050,0.00,VWS V14.01,2013-07-20 09:02:00,
2013-07-20 05:07:00,70.7,69.5,29.97,North,8,0.0,0.0,96,0.00,,SCT050,0.00,VWS V14.01,2013-07-20 09:07:00,
2013-07-20 05:12:00,70.7,69.5,29.97,North,8,0.0,0.0,96,0.00,,SCT050,0.00,VWS V14.01,2013-07-20 09:12:00,
2013-07-20 05:17:00,70.7,69.5,29.97,North,8,0.0,0.0,96,0.00,,SCT050,0.00,VWS V14.01,2013-07-20 09:17:00,
2013-07-20 05:22:00,70.7,69.5,29.97,North,8,0.0,0.0,96,0.00,,SCT050,0.00,VWS V14.01,2013-07-20 09:22:00,
2013-07-20 05:27:00,70.7,69.5,29.97,North,8,0.0,0.0,96,0.00,,SCT050,0.00,VWS V14.01,2013-07-20 09:27:00,
2013-07-20 05:32:00,70.7,69.5,29.97,North,8,0.0,0.0,96,0.00,,SCT050,0.00,VWS V14.01,2013-07-20 09:32:00,
2013-07-20 05:37:00,70.7,69.5,29.97,North,8,0.0,0.0,96,0.00,,SCT050,0.00,VWS V14.01,2013-07-20 09:37:00,
2013-07-20 05:42:00,70.7,69.5,29.97,North,8,0.0,0.0,96,0.00,,SCT050,0.00,VWS V14.01,2013-07-20 09:42:00,
2013-07-20 05:47:00,70.7,69.5,29.98,North,8,0.0,0.0,96,0.00,,SCT050,0.00,VWS V14.01,2013-07-20 09:47:00,
2013-07-20 05:52:00,70.7,69.5,29.98,North,8,0.0,0.0,96,0.00,,SCT050,0.00,VWS V14.01,2013-07-20 09:52:00,
2013-07-20 05:57:00,70.7,69.5,29.98,North,8,0.0,0.0,96,0.00,,SCT050,0.00,VWS V14.01,2013-07-20 09:57:00,
2013-07-20 06:02:00,70.7,69.5,29.98,North,8,0.0,0.0,96,0.00,,SCT050,0.00,VWS V14.01,2013-07-20 10:02:00,
2013-07-20 06:07:00,70.7,69.5,29.98,North,8,0.0,0.0,96,0.00,,SCT050,0.00,VWS V14.01,2013-07-20 10:07:00,
2013-07-20 06:12:00,70.7,69.5,29.98,North,8,0.0,0.0,96,0.00,,SCT050,0.00,VWS V14.01,2013-07-20 10:12:00,
2013-07-20 06:17:00,70.7,69.5,29.98,North,8,0.0,0.0,96,0.00,,SCT050,0.00,VWS V14.01,2013-07-20 10:17:00,
2013-07-20 06:22:00,70.7,69.5,29.98,North,8,0.0,0.0,96,0.00,,SCT050,0.00,VWS V14.01,2013-07-20 10:22:00,
2013-07-20 06:27:00,70.7,69.5,29.98,North,8,0.0,0.0,96,0.00,,SCT050,0.00,VWS V14.01,2013-07-20 10:27:00,
2013-07-20 06:32:00,70.7,69.5,29.98,North,8,0.0,0.0,96,0.00,,SCT050,0.00,VWS V14.01,2013-07-20 10:32:00,
2013-07-20 06:37:00,70.7,69.5,29.98,North,8,0.0,0.0,96,0.00,,SCT050,0.00,VWS V14.01,2013-07-20 10:37:00,
2013-07-20 06:42:00,70.7,69.5,29.98,North,8,0.0,0.0,96,0.00,,SCT050,0.00,VWS V14.01,2013-07-20 10:42:00,
2013-07-20 06:47:00,70.7,69.5,29.99,North,8,0.0,0.0,96,0.00,,SCT050,0.00,VWS V14.01,2013-07-20 10:47:00,
2013-07-20 06:52:00,70.7,69.5,29.99,North,8,0.0,0.0,96,0.00,,SCT050,0.00,VWS V14.01,2013-07-20 10:52:00,
2013-07-20 06:57:00,70.7,69.5,29.99,North,8,0.0,0.0,96,0.00,,SCT050,0.00,VWS V14.01,2013-07-20 10:57:00,
2013-07-20 07:02:00,70.7,69.5,29.99,North,8,0.0,0.0,96,0.00,,SCT050,0.00,VWS V14.01,2013-07-20 11:02:00,
2013-07-20 07:07:00,70.7,69.5,29.99,North,8,0.0,0.0,96,0.00,,SCT050,0.00,VWS V14.01,2013-07-20 11:07:00,
2013-07-20 07:12:00,70.7,69.5,29.99,North,8,0.0,0.0,96,0.00,,SCT050,0.00,VWS V14.01,2013-07-20 11:12:00,
2013-07-20 07:17:00,70.7,69.5,29.99,North,8,0.0,0.0,96,0.00,,SCT050,0.00,VWS V14.01,2013-07-20 11:17:00,
2013-07-20 07:22:00,70.7,69.5,30.00,North,8,0.0,0.0,96,0.00,,SCT050,0.00,VWS V14.01,2013-07-20 11:22:00,
2013-07-20 07:27:00,70.7,69.5,30.00,North,8,0.0,0.0,96,0.00,,SCT050,0.00,VWS V14.01,2013-07-20 11:27:00,
2013-07-20 07:32:00,70.7,69.5,30.00,North,8,0.0,0.0,96,0.00,,SCT050,0.00,VWS V14.01,2013-07-20 11:32:00,
2013-07-20 07:37:00,70.7,69.5,30.00,North,8,0.0,0.0,96,0.00,,SCT050,0.00,VWS V14.01,2013-07-20 11:37:00,
2013-07-20 07:42:00,70.7,69.5,30.00,North,8,0.0,0.0,96,0.00,,SCT050,0.00,VWS V14.01,2013-07-20 11:42:00,
2013-07-20 07:47:00,70.7,69.5,29.99,North,8,0.0,0.0,96,0.00,,SCT050,0.00,VWS V14.01,2013-07-20 11:47:00,
2013-07-20 07:52:00,71.5,70.9,29.99,North,7,0.0,0.0,98,0.00,,SCT050,0.00,VWS V14.01,2013-07-20 11:52:00,
2013-07-20 07:57:00,72.1,71.5,29.99,North,8,0.0,0.0,98,0.00,,SCT050,0.00,VWS V14.01,2013-07-20 11:57:00,
2013-07-20 08:02:00,72.5,71.9,29.99,North,8,0.0,0.0,98,0.00,,SCT120,0.00,VWS V14.01,2013-07-20 12:02:00,
2013-07-20 08:07:00,73.1,72.5,29.99,North,7,0.0,0.0,98,0.00,,SCT120,0.00,VWS V14.01,2013-07-20 12:07:00,
2013-07-20 08:12:00,72.9,72.3,29.99,North,7,0.0,0.0,98,0.00,,SCT120,0.00,VWS V14.01,2013-07-20 12:12:00,
2013-07-20 08:17:00,73.3,72.4,29.99,North,8,0.0,0.0,97,0.00,,SCT120,0.00,VWS V14.01,2013-07-20 12:17:00,
2013-07-20 08:22:00,73.8,72.9,29.99,North,7,0.0,0.0,97,0.00,,SCT120,0.00,VWS V14.01,2013-07-20 12:22:00,
2013-07-20 08:27:00,74.5,73.3,29.99,North,8,0.0,0.0,96,0.00,,SCT120,0.00,VWS V14.01,2013-07-20 12:27:00,
2013-07-20 08:32:00,75.1,73.3,29.99,North,7,0.0,0.0,94,0.00,,SCT120,0.00,VWS V14.01,2013-07-20 12:32:00,
2013-07-20 08:37:00,76.0,73.5,30.00,North,8,0.0,0.0,92,0.00,,SCT120,0.00,VWS V14.01,2013-07-20 12:37:00,
2013-07-20 08:42:00,76.7,73.2,30.00,North,8,0.0,0.0,89,0.00,,SCT120,0.00,VWS V14.01,2013-07-20 12:42:00,
2013-07-20 08:47:00,77.7,73.5,29.99,ENE,69,0.0,0.0,87,0.00,,SCT120,0.00,VWS V14.01,2013-07-20 12:47:00,
2013-07-20 08:52:00,78.5,73.3,30.00,ENE,71,0.0,0.0,84,0.00,,SCT120,0.00,VWS V14.01,2013-07-20 12:52:00,
2013-07-20 08:57:00,79.1,73.5,30.00,ENE,70,0.0,0.0,83,0.00,,SCT120,0.00,VWS V14.01,2013-07-20 12:57:00,
2013-07-20 09:02:00,79.7,73.7,30.00,ENE,65,0.0,0.0,82,0.00,,BKN110,0.00,VWS V14.01,2013-07-20 13:02:00,
2013-07-20 09:07:00,80.3,74.3,30.00,ENE,65,0.0,0.0,82,0.00,,BKN110,0.00,VWS V14.01,2013-07-20 13:07:00,
2013-07-20 09:12:00,80.3,73.9,30.00,East,85,1.0,1.0,81,0.00,,BKN110,0.00,VWS V14.01,2013-07-20 13:12:00,
2013-07-20 09:17:00,79.7,73.7,30.00,ENE,70,0.0,0.0,82,0.00,,BKN110,0.00,VWS V14.01,2013-07-20 13:17:00,
2013-07-20 09:22:00,80.2,73.8,30.00,ENE,71,0.0,0.0,81,0.00,,BKN110,0.00,VWS V14.01,2013-07-20 13:22:00,
2013-07-20 09:27:00,81.0,73.9,30.00,NNW,347,0.0,0.0,79,0.00,,BKN110,0.00,VWS V14.01,2013-07-20 13:27:00,
2013-07-20 09:32:00,81.6,74.5,29.99,NNW,347,0.0,0.0,79,0.00,,BKN110,0.00,VWS V14.01,2013-07-20 13:32:00,
2013-07-20 09:37:00,82.1,73.8,29.99,North,353,0.0,0.0,76,0.00,,BKN110,0.00,VWS V14.01,2013-07-20 13:37:00,
2013-07-20 09:42:00,81.9,73.6,29.99,East,86,0.0,1.0,76,0.00,,BKN110,0.00,VWS V14.01,2013-07-20 13:42:00,
2013-07-20 09:47:00,81.6,73.7,30.00,East,82,1.0,1.0,77,0.00,,BKN110,0.00,VWS V14.01,2013-07-20 13:47:00,
2013-07-20 09:52:00,81.8,73.5,30.00,WSW,257,0.0,0.0,76,0.00,,BKN110,0.00,VWS V14.01,2013-07-20 13:52:00,
2013-07-20 09:57:00,82.2,73.9,30.00,WSW,258,0.0,0.0,76,0.00,,BKN110,0.00,VWS V14.01,2013-07-20 13:57:00,
2013-07-20 10:02:00,82.2,73.5,30.00,ENE,75,1.0,1.0,75,0.00,,SCT120,0.00,VWS V14.01,2013-07-20 14:02:00,
2013-07-20 10:07:00,82.5,73.8,30.00,ENE,75,0.0,0.0,75,0.00,,SCT120,0.00,VWS V14.01,2013-07-20 14:07:00,
2013-07-20 10:12:00,83.0,73.9,30.00,ENE,75,0.0,1.0,74,0.00,,SCT120,0.00,VWS V14.01,2013-07-20 14:12:00,
2013-07-20 10:17:00,82.8,74.5,30.00,ENE,75,0.0,0.0,76,0.00,,SCT120,0.00,VWS V14.01,2013-07-20 14:17:00,
2013-07-20 10:22:00,82.4,74.1,30.00,ENE,75,0.0,0.0,76,0.00,,SCT120,0.00,VWS V14.01,2013-07-20 14:22:00,
2013-07-20 10:27:00,81.7,73.8,30.00,West,260,1.0,1.0,77,0.00,,SCT120,0.00,VWS V14.01,2013-07-20 14:27:00,
2013-07-20 10:32:00,81.7,74.2,30.00,West,260,0.0,0.0,78,0.00,,SCT120,0.00,VWS V14.01,2013-07-20 14:32:00,
2013-07-20 10:37:00,81.9,74.0,30.00,West,262,0.0,0.0,77,0.00,,SCT120,0.00,VWS V14.01,2013-07-20 14:37:00,
2013-07-20 10:42:00,82.1,74.2,30.00,WSW,250,0.0,0.0,77,0.00,,SCT120,0.00,VWS V14.01,2013-07-20 14:42:00,
2013-07-20 10:47:00,82.1,74.2,30.00,WSW,248,1.0,1.0,77,0.00,,SCT120,0.00,VWS V14.01,2013-07-20 14:47:00,
2013-07-20 10:52:00,82.6,74.3,30.00,WSW,249,0.0,0.0,76,0.00,,SCT120,0.00,VWS V14.01,2013-07-20 14:52:00,
2013-07-20 10:57:00,83.2,74.8,30.00,WSW,249,0.0,0.0,76,0.00,,SCT120,0.00,VWS V14.01,2013-07-20 14:57:00,
2013-07-20 11:02:00,83.1,74.4,30.00,WSW,238,0.0,0.0,75,0.00,,BKN120,0.00,VWS V14.01,2013-07-20 15:02:00,
2013-07-20 11:07:00,83.2,74.5,30.00,SW,214,0.0,0.0,75,0.00,,BKN120,0.00,VWS V14.01,2013-07-20 15:07:00,
2013-07-20 11:12:00,83.8,75.0,30.00,SW,214,0.0,0.0,75,0.00,,BKN120,0.00,VWS V14.01,2013-07-20 15:12:00,
2013-07-20 11:17:00,84.4,74.8,30.00,SW,221,1.0,1.0,73,0.00,,BKN120,0.00,VWS V14.01,2013-07-20 15:17:00,
2013-07-20 11:22:00,84.2,73.8,30.00,SSW,207,0.0,1.0,71,0.00,,BKN120,0.00,VWS V14.01,2013-07-20 15:22:00,
2013-07-20 11:27:00,85.1,75.9,30.00,SSW,207,0.0,0.0,74,0.00,,BKN120,0.00,VWS V14.01,2013-07-20 15:27:00,
2013-07-20 11:32:00,84.7,74.3,30.00,SSW,208,0.0,0.0,71,0.00,,BKN120,0.00,VWS V14.01,2013-07-20 15:32:00,
2013-07-20 11:37:00,84.7,75.1,30.00,SSW,203,0.0,1.0,73,0.00,,BKN120,0.00,VWS V14.01,2013-07-20 15:37:00,
2013-07-20 11:42:00,85.4,75.3,30.00,SW,231,0.0,0.0,72,0.00,,BKN120,0.00,VWS V14.01,2013-07-20 15:42:00,
2013-07-20 11:47:00,85.4,75.3,30.00,SW,232,0.0,1.0,72,0.00,,BKN120,0.00,VWS V14.01,2013-07-20 15:47:00,
2013-07-20 11:52:00,85.0,75.0,29.99,SW,232,0.0,0.0,72,0.00,,BKN120,0.00,VWS V14.01,2013-07-20 15:52:00,
2013-07-20 11:57:00,85.2,74.7,29.99,SSE,166,0.0,1.0,71,0.00,,BKN120,0.00,VWS V14.01,2013-07-20 15:57:00,
2013-07-20 12:02:00,85.7,75.2,29.99,SW,222,0.0,2.0,71,0.00,,SCT120,0.00,VWS V14.01,2013-07-20 16:02:00,
2013-07-20 12:07:00,86.0,74.2,29.99,West,263,0.0,0.0,68,0.00,,SCT120,0.00,VWS V14.01,2013-07-20 16:07:00,
2013-07-20 12:12:00,85.9,73.7,29.99,West,269,0.0,1.0,67,0.00,,SCT120,0.00,VWS V14.01,2013-07-20 16:12:00,
2013-07-20 12:17:00,85.9,74.6,29.99,SW,231,0.0,0.0,69,0.00,,SCT120,0.00,VWS V14.01,2013-07-20 16:17:00,
2013-07-20 12:22:00,86.3,74.5,29.99,WSW,250,0.0,1.0,68,0.00,,SCT120,0.00,VWS V14.01,2013-07-20 16:22:00,
2013-07-20 12:27:00,86.5,76.4,29.98,SW,229,1.0,1.0,72,0.00,,SCT120,0.00,VWS V14.01,2013-07-20 16:27:00,
2013-07-20 12:32:00,86.6,76.1,29.98,WSW,252,2.0,2.0,71,0.00,,SCT120,0.00,VWS V14.01,2013-07-20 16:32:00,
2013-07-20 12:37:00,86.9,74.2,29.98,WSW,255,1.0,2.0,66,0.00,,SCT120,0.00,VWS V14.01,2013-07-20 16:37:00,
2013-07-20 12:42:00,87.5,74.3,29.98,SSW,195,1.0,1.0,65,0.00,,SCT120,0.00,VWS V14.01,2013-07-20 16:42:00,
2013-07-20 12:47:00,87.8,75.0,29.98,WNW,301,1.0,1.0,66,0.00,,SCT120,0.00,VWS V14.01,2013-07-20 16:47:00,
2013-07-20 12:52:00,88.9,75.2,29.97,WSW,248,0.0,1.0,64,0.00,,SCT120,0.00,VWS V14.01,2013-07-20 16:52:00,
2013-07-20 12:57:00,89.9,75.6,29.97,SW,229,2.0,2.0,63,0.00,,SCT120,0.00,VWS V14.01,2013-07-20 16:57:00,
2013-07-20 13:02:00,89.5,73.8,29.97,ESE,108,1.0,2.0,60,0.00,,SCT120,0.00,VWS V14.01,2013-07-20 17:02:00,
2013-07-20 13:07:00,89.4,74.2,29.96,NNW,335,0.0,1.0,61,0.00,,SCT120,0.00,VWS V14.01,2013-07-20 17:07:00,
2013-07-20 13:12:00,89.2,73.0,29.95,NE,53,0.0,1.0,59,0.00,,SCT120,0.00,VWS V14.01,2013-07-20 17:12:00,
2013-07-20 13:17:00,90.0,72.2,29.95,NE,44,1.0,1.0,56,0.00,,SCT120,0.00,VWS V14.01,2013-07-20 17:17:00,
2013-07-20 13:22:00,90.3,73.0,29.96,SSW,194,0.0,1.0,57,0.00,,SCT120,0.00,VWS V14.01,2013-07-20 17:22:00,
2013-07-20 13:27:00,91.3,76.0,29.96,SW,236,0.0,0.0,61,0.00,,SCT120,0.00,VWS V14.01,2013-07-20 17:27:00,
2013-07-20 13:32:00,90.5,74.2,29.96,SE,144,3.0,3.0,59,0.00,,SCT120,0.00,VWS V14.01,2013-07-20 17:32:00,
2013-07-20 13:37:00,88.5,73.8,29.96,SW,226,0.0,2.0,62,0.00,,SCT120,0.00,VWS V14.01,2013-07-20 17:37:00,
2013-07-20 13:42:00,87.0,73.8,29.95,SSW,212,1.0,4.0,65,0.00,,SCT120,0.00,VWS V14.01,2013-07-20 17:42:00,
2013-07-20 13:47:00,85.2,73.9,29.95,South,191,0.0,1.0,69,0.00,,SCT120,0.00,VWS V14.01,2013-07-20 17:47:00,
2013-07-20 13:52:00,84.3,73.9,29.95,WSW,243,0.0,1.0,71,0.00,,SCT120,0.00,VWS V14.01,2013-07-20 17:52:00,
2013-07-20 13:57:00,83.1,73.6,29.95,SSW,204,0.0,0.0,73,0.00,,SCT120,0.00,VWS V14.01,2013-07-20 17:57:00,
2013-07-20 14:02:00,82.4,73.7,29.95,SW,222,0.0,0.0,75,0.00,,BKN035,0.00,VWS V14.01,2013-07-20 18:02:00,
2013-07-20 14:07:00,82.2,73.5,29.94,SW,214,0.0,0.0,75,0.00,,BKN035,0.00,VWS V14.01,2013-07-20 18:07:00,
2013-07-20 14:12:00,81.9,73.2,29.94,SW,221,0.0,1.0,75,0.00,,BKN035,0.00,VWS V14.01,2013-07-20 18:12:00,
2013-07-20 14:17:00,81.7,73.4,29.94,SW,217,0.0,1.0,76,0.00,,BKN035,0.00,VWS V14.01,2013-07-20 18:17:00,
2013-07-20 14:22:00,81.9,73.6,29.94,ESE,114,0.0,1.0,76,0.00,,BKN035,0.00,VWS V14.01,2013-07-20 18:22:00,
2013-07-20 14:27:00,82.5,74.6,29.94,ESE,122,0.0,0.0,77,0.00,,BKN035,0.00,VWS V14.01,2013-07-20 18:27:00,
2013-07-20 14:32:00,83.1,74.8,29.93,SSW,207,0.0,0.0,76,0.00,,BKN035,0.00,VWS V14.01,2013-07-20 18:32:00,
2013-07-20 14:37:00,83.6,75.2,29.93,WSW,246,0.0,1.0,76,0.00,,BKN035,0.00,VWS V14.01,2013-07-20 18:37:00,
2013-07-20 14:42:00,84.8,75.6,29.92,SSE,165,0.0,0.0,74,0.00,,BKN035,0.00,VWS V14.01,2013-07-20 18:42:00,
2013-07-20 14:47:00,85.9,75.0,29.93,ENE,65,0.0,1.0,70,0.00,,BKN035,0.00,VWS V14.01,2013-07-20 18:47:00,
2013-07-20 14:52:00,86.9,75.1,29.92,SSE,148,0.0,1.0,68,0.00,,BKN035,0.00,VWS V14.01,2013-07-20 18:52:00,
2013-07-20 14:58:00,88.4,76.9,29.93,East,95,0.0,0.0,69,0.00,,BKN035,0.00,VWS V14.01,2013-07-20 18:58:00,
2013-07-20 15:03:00,88.3,75.1,29.92,SW,224,2.0,2.0,65,0.00,,BKN040,0.00,VWS V14.01,2013-07-20 19:03:00,
2013-07-20 15:08:00,89.3,76.9,29.92,SSE,157,0.0,0.0,67,0.00,,BKN040,0.00,VWS V14.01,2013-07-20 19:08:00,
2013-07-20 15:13:00,90.0,75.7,29.92,WSW,242,2.0,3.0,63,0.00,,BKN040,0.00,VWS V14.01,2013-07-20 19:13:00,
2013-07-20 15:18:00,89.0,73.8,29.92,SW,233,4.0,4.0,61,0.00,,BKN040,0.00,VWS V14.01,2013-07-20 19:18:00,
2013-07-20 15:23:00,89.4,75.6,29.91,SSW,212,0.0,0.0,64,0.00,,BKN040,0.00,VWS V14.01,2013-07-20 19:23:00,
2013-07-20 15:28:00,90.5,74.7,29.91,East,92,2.0,3.0,60,0.00,,BKN040,0.00,VWS V14.01,2013-07-20 19:28:00,
2013-07-20 15:33:00,89.3,75.1,29.92,East,94,0.0,2.0,63,0.00,,BKN040,0.00,VWS V14.01,2013-07-20 19:33:00,
2013-07-20 15:38:00,87.9,74.2,29.92,East,94,0.0,2.0,64,0.00,,BKN040,0.00,VWS V14.01,2013-07-20 19:38:00,
2013-07-20 15:43:00,86.7,74.9,29.92,NE,44,1.0,2.0,68,0.00,,BKN040,0.00,VWS V14.01,2013-07-20 19:43:00,
2013-07-20 15:48:00,85.2,75.6,29.92,North,353,0.0,0.0,73,0.00,,BKN040,0.00,VWS V14.01,2013-07-20 19:48:00,
2013-07-20 15:53:00,83.2,72.4,29.92,WSW,242,1.0,3.0,70,0.00,,BKN040,0.00,VWS V14.01,2013-07-20 19:53:00,
2013-07-20 15:58:00,81.3,73.0,29.92,SW,226,1.0,2.0,76,0.01,,BKN040,0.01,VWS V14.01,2013-07-20 19:58:00,
2013-07-20 16:03:00,77.9,70.1,29.92,North,358,1.0,2.0,77,0.04,,BKN036,0.04,VWS V14.01,2013-07-20 20:03:00,
2013-07-20 16:08:00,75.7,70.5,29.93,WSW,245,0.0,0.0,84,0.11,,BKN036,0.11,VWS V14.01,2013-07-20 20:08:00,
2013-07-20 16:14:00,74.1,69.0,29.93,ENE,71,0.0,2.0,84,0.31,,,0.31,VWS V14.01,2013-07-20 20:14:00,
2013-07-20 16:19:00,72.8,69.0,29.93,ENE,72,0.0,1.0,88,0.42,,,0.42,VWS V14.01,2013-07-20 20:19:00,
2013-07-20 16:24:00,72.2,69.1,29.93,ENE,72,0.0,0.0,90,0.46,,,0.46,VWS V14.01,2013-07-20 20:24:00,
2013-07-20 16:29:00,72.0,69.6,29.93,ENE,72,0.0,0.0,92,0.48,,,0.48,VWS V14.01,2013-07-20 20:29:00,
2013-07-20 16:34:00,71.9,69.8,29.93,SE,129,1.0,2.0,93,0.48,,,0.48,VWS V14.01,2013-07-20 20:34:00,
2013-07-20 16:39:00,71.5,69.4,29.93,South,170,0.0,1.0,93,0.48,,,0.48,VWS V14.01,2013-07-20 20:39:00,
2013-07-20 16:44:00,71.3,69.2,29.94,South,172,0.0,0.0,93,0.48,,,0.48,VWS V14.01,2013-07-20 20:44:00,
2013-07-20 16:49:00,71.1,69.3,29.94,SW,222,0.0,1.0,94,0.49,,,0.49,VWS V14.01,2013-07-20 20:49:00,
2013-07-20 16:54:00,70.8,69.0,29.94,SW,226,1.0,2.0,94,0.49,,,0.49,VWS V14.01,2013-07-20 20:54:00,
2013-07-20 16:59:00,70.6,68.8,29.94,West,259,0.0,1.0,94,0.49,,,0.49,VWS V14.01,2013-07-20 20:59:00,
2013-07-20 17:04:00,70.5,68.7,29.94,West,259,0.0,1.0,94,0.46,,BKN150,0.49,VWS V14.01,2013-07-20 21:04:00,
2013-07-20 17:09:00,70.4,68.6,29.94,West,259,0.0,0.0,94,0.42,,BKN150,0.49,VWS V14.01,2013-07-20 21:09:00,
2013-07-20 17:14:00,70.3,68.5,29.94,West,259,0.0,0.0,94,0.24,,BKN150,0.49,VWS V14.01,2013-07-20 21:14:00,
2013-07-20 17:19:00,70.3,68.8,29.94,WSW,243,0.0,1.0,95,0.10,,BKN150,0.49,VWS V14.01,2013-07-20 21:19:00,
2013-07-20 17:24:00,70.3,68.8,29.94,WSW,243,0.0,0.0,95,0.04,,BKN150,0.49,VWS V14.01,2013-07-20 21:24:00,
2013-07-20 17:29:00,70.3,68.8,29.94,WSW,243,0.0,0.0,95,0.02,,BKN150,0.49,VWS V14.01,2013-07-20 21:29:00,
2013-07-20 17:34:00,70.4,68.9,29.94,WSW,244,0.0,0.0,95,0.01,,BKN150,0.49,VWS V14.01,2013-07-20 21:34:00,
2013-07-20 17:39:00,70.3,68.8,29.94,SW,215,0.0,1.0,95,0.01,,BKN150,0.49,VWS V14.01,2013-07-20 21:39:00,
2013-07-20 17:44:00,70.3,68.8,29.94,SW,215,0.0,0.0,95,0.01,,BKN150,0.49,VWS V14.01,2013-07-20 21:44:00,
2013-07-20 17:50:00,70.3,68.8,29.94,SW,214,0.0,1.0,95,0.00,,BKN150,0.49,VWS V14.01,2013-07-20 21:50:00,
2013-07-20 17:55:00,70.3,68.8,29.94,East,91,0.0,1.0,95,0.00,,BKN150,0.49,VWS V14.01,2013-07-20 21:55:00,
2013-07-20 18:00:00,70.4,69.2,29.94,East,90,0.0,0.0,96,0.00,,BKN150,0.49,VWS V14.01,2013-07-20 22:00:00,
2013-07-20 18:05:00,70.7,69.5,29.94,East,90,0.0,0.0,96,0.00,,BKN080,0.49,VWS V14.01,2013-07-20 22:05:00,
2013-07-20 18:10:00,70.8,69.6,29.93,East,91,0.0,0.0,96,0.00,,BKN080,0.49,VWS V14.01,2013-07-20 22:10:00,
2013-07-20 18:15:00,70.8,69.6,29.93,East,90,0.0,0.0,96,0.00,,BKN080,0.49,VWS V14.01,2013-07-20 22:15:00,
2013-07-20 18:20:00,71.1,70.2,29.93,East,90,0.0,0.0,97,0.00,,BKN080,0.49,VWS V14.01,2013-07-20 22:20:00,
2013-07-20 18:25:00,71.1,69.9,29.93,East,90,0.0,0.0,96,0.01,,BKN080,0.50,VWS V14.01,2013-07-20 22:25:00,
2013-07-20 18:30:00,71.1,69.9,29.92,East,95,0.0,0.0,96,0.01,,BKN080,0.50,VWS V14.01,2013-07-20 22:30:00,
2013-07-20 18:35:00,71.1,69.9,29.92,East,95,0.0,0.0,96,0.02,,BKN080,0.51,VWS V14.01,2013-07-20 22:35:00,
2013-07-20 18:40:00,71.1,69.9,29.93,East,94,0.0,0.0,96,0.02,,BKN080,0.51,VWS V14.01,2013-07-20 22:40:00,
2013-07-20 18:45:00,71.1,69.9,29.93,SE,127,0.0,1.0,96,0.03,,BKN080,0.52,VWS V14.01,2013-07-20 22:45:00,
2013-07-20 18:50:00,71.1,69.9,29.93,SE,127,0.0,0.0,96,0.04,,BKN080,0.53,VWS V14.01,2013-07-20 22:50:00,
2013-07-20 18:56:00,71.1,69.9,29.93,SE,127,0.0,0.0,96,0.05,,BKN080,0.54,VWS V14.01,2013-07-20 22:56:00,
2013-07-20 19:01:00,71.0,69.8,29.93,SE,126,0.0,0.0,96,0.05,,BKN080,0.54,VWS V14.01,2013-07-20 23:01:00,
2013-07-20 19:06:00,71.2,70.3,29.93,SE,126,0.0,0.0,97,0.05,,BKN080,0.54,VWS V14.01,2013-07-20 23:06:00,
2013-07-20 19:11:00,71.3,70.4,29.93,SE,125,0.0,0.0,97,0.06,,BKN080,0.55,VWS V14.01,2013-07-20 23:11:00,
2013-07-20 19:16:00,71.4,70.5,29.92,SE,125,0.0,0.0,97,0.06,,BKN080,0.55,VWS V14.01,2013-07-20 23:16:00,
2013-07-20 19:21:00,71.4,70.5,29.92,SE,125,0.0,0.0,97,0.06,,BKN080,0.55,VWS V14.01,2013-07-20 23:21:00,
2013-07-20 19:26:00,71.5,70.6,29.92,SE,126,0.0,0.0,97,0.06,,BKN080,0.55,VWS V14.01,2013-07-20 23:26:00,
2013-07-20 19:31:00,71.8,70.9,29.92,SE,125,0.0,0.0,97,0.05,,BKN080,0.55,VWS V14.01,2013-07-20 23:31:00,
2013-07-20 19:36:00,72.0,71.1,29.92,SE,126,0.0,0.0,97,0.05,,BKN080,0.55,VWS V14.01,2013-07-20 23:36:00,
2013-07-20 19:41:00,72.0,71.1,29.92,SE,125,0.0,0.0,97,0.04,,BKN080,0.55,VWS V14.01,2013-07-20 23:41:00,
2013-07-20 19:46:00,72.4,71.5,29.92,SE,125,0.0,0.0,97,0.03,,BKN080,0.55,VWS V14.01,2013-07-20 23:46:00,
2013-07-20 19:51:00,72.5,71.6,29.93,ESE,119,0.0,1.0,97,0.03,,BKN080,0.55,VWS V14.01,2013-07-20 23:51:00,
2013-07-20 19:56:00,72.4,71.5,29.93,NE,56,0.0,2.0,97,0.02,,BKN080,0.55,VWS V14.01,2013-07-20 23:56:00,
2013-07-20 20:01:00,72.4,71.5,29.92,NE,56,0.0,0.0,97,0.01,,BKN150,0.55,VWS V14.01,2013-07-21 00:01:00,
2013-07-20 20:06:00,72.4,71.5,29.93,NE,56,0.0,0.0,97,0.01,,BKN150,0.55,VWS V14.01,2013-07-21 00:06:00,
2013-07-20 20:11:00,72.4,71.5,29.92,NE,55,0.0,0.0,97,0.01,,BKN150,0.55,VWS V14.01,2013-07-21 00:11:00,
2013-07-20 20:17:00,72.3,71.4,29.92,NE,56,0.0,0.0,97,0.00,,BKN150,0.55,VWS V14.01,2013-07-21 00:17:00,
2013-07-20 20:22:00,72.3,71.4,29.93,NE,56,0.0,0.0,97,0.00,,BKN150,0.55,VWS V14.01,2013-07-21 00:22:00,
2013-07-20 20:27:00,72.3,71.4,29.93,NE,56,0.0,0.0,97,0.00,,BKN150,0.55,VWS V14.01,2013-07-21 00:27:00,
2013-07-20 20:32:00,72.2,71.3,29.93,NE,53,0.0,0.0,97,0.00,,BKN150,0.55,VWS V14.01,2013-07-21 00:32:00,
2013-07-20 20:37:00,72.2,71.3,29.93,NE,54,0.0,0.0,97,0.00,,BKN150,0.55,VWS V14.01,2013-07-21 00:37:00,
2013-07-20 20:42:00,72.1,71.2,29.93,NE,53,0.0,0.0,97,0.00,,BKN150,0.55,VWS V14.01,2013-07-21 00:42:00,
2013-07-20 20:47:00,72.1,71.2,29.94,NE,54,0.0,0.0,97,0.00,,BKN150,0.55,VWS V14.01,2013-07-21 00:47:00,
2013-07-20 20:52:00,72.0,71.1,29.94,NE,53,0.0,0.0,97,0.00,,BKN150,0.55,VWS V14.01,2013-07-21 00:52:00,
2013-07-20 20:57:00,71.8,70.9,29.94,NE,53,0.0,0.0,97,0.00,,BKN150,0.55,VWS V14.01,2013-07-21 00:57:00,
2013-07-20 21:02:00,71.8,70.9,29.94,NE,54,0.0,0.0,97,0.00,,BKN150,0.55,VWS V14.01,2013-07-21 01:02:00,
2013-07-20 21:07:00,71.8,71.2,29.95,NE,53,0.0,0.0,98,0.00,,BKN150,0.55,VWS V14.01,2013-07-21 01:07:00,
2013-07-20 21:12:00,71.9,71.3,29.95,NE,54,0.0,0.0,98,0.00,,BKN150,0.55,VWS V14.01,2013-07-21 01:12:00,
2013-07-20 21:17:00,71.9,71.3,29.95,NE,53,0.0,0.0,98,0.00,,BKN150,0.55,VWS V14.01,2013-07-21 01:17:00,
2013-07-20 21:22:00,71.8,71.2,29.95,NE,53,0.0,0.0,98,0.00,,BKN150,0.55,VWS V14.01,2013-07-21 01:22:00,
2013-07-20 21:27:00,71.7,71.1,29.95,NE,54,0.0,0.0,98,0.00,,BKN150,0.55,VWS V14.01,2013-07-21 01:27:00,
2013-07-20 21:32:00,71.9,71.3,29.96,NE,54,0.0,0.0,98,0.00,,BKN150,0.55,VWS V14.01,2013-07-21 01:32:00,
2013-07-20 21:37:00,71.9,71.3,29.96,NE,53,0.0,0.0,98,0.00,,BKN150,0.55,VWS V14.01,2013-07-21 01:37:00,
2013-07-20 21:42:00,71.8,71.2,29.97,NE,54,0.0,0.0,98,0.00,,BKN150,0.55,VWS V14.01,2013-07-21 01:42:00,
2013-07-20 21:47:00,71.8,71.2,29.97,NE,54,0.0,0.0,98,0.00,,BKN150,0.55,VWS V14.01,2013-07-21 01:47:00,
2013-07-20 21:52:00,71.7,71.1,29.97,NE,54,0.0,0.0,98,0.00,,BKN150,0.55,VWS V14.01,2013-07-21 01:52:00,
2013-07-20 21:57:00,71.7,71.1,29.98,NE,54,0.0,0.0,98,0.00,,BKN150,0.55,VWS V14.01,2013-07-21 01:57:00,
2013-07-20 22:02:00,71.8,71.2,29.98,NE,53,0.0,0.0,98,0.00,,BKN150,0.55,VWS V14.01,2013-07-21 02:02:00,
2013-07-20 22:07:00,71.8,71.2,29.98,NE,54,0.0,0.0,98,0.00,,BKN150,0.55,VWS V14.01,2013-07-21 02:07:00,
2013-07-20 22:13:00,71.8,71.2,29.98,NE,54,0.0,0.0,98,0.00,,BKN150,0.55,VWS V14.01,2013-07-21 02:13:00,
2013-07-20 22:18:00,71.7,71.1,29.98,NE,54,0.0,0.0,98,0.00,,BKN150,0.55,VWS V14.01,2013-07-21 02:18:00,
2013-07-20 22:23:00,71.7,71.1,29.99,NE,54,0.0,0.0,98,0.00,,BKN150,0.55,VWS V14.01,2013-07-21 02:23:00,
2013-07-20 22:28:00,71.6,71.0,29.99,NE,54,0.0,0.0,98,0.00,,BKN150,0.55,VWS V14.01,2013-07-21 02:28:00,
2013-07-20 22:33:00,71.6,71.0,29.99,NE,53,0.0,0.0,98,0.00,,BKN150,0.55,VWS V14.01,2013-07-21 02:33:00,
2013-07-20 22:38:00,71.6,71.0,29.99,NE,54,0.0,0.0,98,0.00,,BKN150,0.55,VWS V14.01,2013-07-21 02:38:00,
2013-07-20 22:43:00,71.7,71.1,29.99,NE,53,0.0,0.0,98,0.00,,BKN150,0.55,VWS V14.01,2013-07-21 02:43:00,
2013-07-20 22:48:00,71.6,71.0,29.99,NE,54,0.0,0.0,98,0.00,,BKN150,0.55,VWS V14.01,2013-07-21 02:48:00,
2013-07-20 22:53:00,71.7,71.1,29.99,NE,54,0.0,0.0,98,0.00,,BKN150,0.55,VWS V14.01,2013-07-21 02:53:00,
2013-07-20 22:58:00,71.7,71.1,29.99,NE,54,0.0,0.0,98,0.00,,BKN150,0.55,VWS V14.01,2013-07-21 02:58:00,
2013-07-20 23:03:00,71.7,71.1,29.99,NE,53,0.0,0.0,98,0.00,,BKN150,0.55,VWS V14.01,2013-07-21 03:03:00,
2013-07-20 23:08:00,71.8,71.2,30.00,ENE,58,0.0,1.0,98,0.00,,BKN150,0.55,VWS V14.01,2013-07-21 03:08:00,
2013-07-20 23:13:00,71.8,71.2,30.00,ENE,58,0.0,0.0,98,0.00,,BKN150,0.55,VWS V14.01,2013-07-21 03:13:00,
2013-07-20 23:19:00,71.9,71.3,30.00,ENE,58,0.0,0.0,98,0.00,,BKN150,0.55,VWS V14.01,2013-07-21 03:19:00,
2013-07-20 23:24:00,72.0,71.4,29.99,ENE,58,0.0,0.0,98,0.00,,BKN150,0.55,VWS V14.01,2013-07-21 03:24:00,
2013-07-20 23:29:00,72.0,71.4,29.99,ENE,58,0.0,0.0,98,0.00,,BKN150,0.55,VWS V14.01,2013-07-21 03:29:00,
2013-07-20 23:34:00,72.0,71.4,30.00,ENE,58,0.0,0.0,98,0.00,,BKN150,0.55,VWS V14.01,2013-07-21 03:34:00,
2013-07-20 23:39:00,72.0,71.4,30.00,ENE,58,0.0,0.0,98,0.00,,BKN150,0.55,VWS V14.01,2013-07-21 03:39:00,
2013-07-20 23:44:00,72.0,71.4,29.99,ENE,58,0.0,0.0,98,0.00,,BKN150,0.55,VWS V14.01,2013-07-21 03:44:00,
2013-07-20 23:49:00,71.9,71.3,29.99,ENE,58,0.0,0.0,98,0.00,,BKN150,0.55,VWS V14.01,2013-07-21 03:49:00,
2013-07-20 23:54:00,71.7,71.1,29.99,ENE,58,0.0,0.0,98,0.00,,BKN150,0.55,VWS V14.01,2013-07-21 03:54:00,
2013-07-20 23:59:00,71.7,71.1,29.99,ENE,58,0.0,0.0,98,0.00,,BKN150,0.55,VWS V14.01,2013-07-21 03:59:00,